INTELSAT 33E DEB, 61998

Orbit data source: Space-Track

INTELSAT 33E DEB, 61998 is space debris in GEO originally from a launch on Wed, 24 Aug 2016 UTC launched from the French Guiana (FRGUI). Debris objects in space refer to the collection of defunct objects orbiting the Earth. Examples of debris include non-operational satellites, rocket bodies, and fragments generated from explosions, collisions, or faulty payload assembly.

Loading next visibility...
Identifier
61998, 2016-053Q
Orbit
GEO
Country
Flag of UnknownUnknown / ITSO
Related business
Manufacturer
Boeing/ES
Mission
Spacecraft
Bus & Motor
Unknown
Mass
Unknown
Launch date (UTC)
2016-08-24 (9 years ago)
Launch vehicle
Unknown
Launch site
French Guiana (FRGUI)
Object type
Payload
Rocket body
Debris
Shape & HBR
Unknown shape, 1.1 m
Radar Cross Section
RCS unknown

Expand to show TLE details & history
Last TLE update: 1 day ago

TLE from 1 day ago
0 INTELSAT 33E DEB
1 61998U 16053Q   25346.24736741 -.00000210  00000-0  00000-0 0  9996
2 61998   1.0769  85.5136 0019907 250.9092 107.9190  1.00434032  4221
Epoch: 2025-12-12T05:56Z
TLE epoch observation values (Epoch: 2025-12-12T05:56:12.544Z)
Latitude
Longitude
-85.69068°
Altitude
35,766.625 km
Speed
3.074 km/s
True Right ascension
05h 38m 12s
True Declination
0° 00' 00"
Sunlit
Object was in daylight at epoch
Visualization orbit readout
Latitude
Unknown
Longitude
Unknown
Altitude
Unknown
Speed
Unknown
Apparent Right ascension
Unknown
Apparent Declination
Unknown
Sunlit
N/A
Visualization observer readout
Local Sidereal Time
05:23:55
Azimuth
Unknown
Elevation
Unknown
Doppler factor
Unknown
Orbital elements
Apogee altitude
35,826.092 km
Perigee altitude
35,658.394 km
Semi-major axis
42,120.38 km
Eccentricity
0.00199
Inclination
1.0769°
RAAN
85.5136°
Arg. of periapsis
250.9092°
True anomaly
108.13589°
Mean anomaly
107.919°
Eccentric anomaly
108.02746°
Mean motion
0.25108 °/min
Orbital period
1,433.83 mins
BSTAR
0
Loading maneuver chart data...
Computing Atmospheric mass density...
Loading historical data...
Loading historical data...
Loading historical data...
Loading historical data...
Loading historical data...
Loading historical data...
Loading historical data...

Documentation

Showing up to 5 results
|